Location: Okie-Tex Star Party
(36.8978°N, 102.9520°W)
Time: 17:33:33
(UTC-05:00)

Amateur Radio Satellites - All Passes

Search period start: 30 May 2015 17:03
Search period end: 31 May 2015 17:03
Location: Okie-Tex Star Party, 36.8978°N, 102.9520°W

Satellite Date Start Highest point End Downlink Frequencies (MHz)
Time Altitude Azimuth
STARS 30 May 17:13:47 17:18:14 83° 284° (WNW) 17:22:37 437.465
BEESAT 2 30 May 17:17:59 17:20:48 19° 111° (ESE) 17:23:45 435.950
ITUPSAT 1 30 May 17:19:07 17:19:55 10° 296° (WNW) 17:20:24 437.325
HORYU 2 30 May 17:46:23 17:49:56 22° 266° (W) 17:53:23 437.375
KKS-1 30 May 17:57:08 18:00:13 18° 292° (WNW) 18:03:09 437.445
YUBILEINY 30 May 17:59:26 18:04:53 19° 64° (ENE) 18:10:48 435.215
BEESAT 3 30 May 18:00:04 18:04:07 74° 118° (ESE) 18:08:13 437.485
Cubesat XI-IV 30 May 18:07:03 18:10:05 16° 65° (ENE) 18:13:22 437.490
MOZHAYETS 4 30 May 18:17:31 18:22:03 61° 101° (E) 18:26:34
JAS-2 30 May 18:45:34 18:47:31 11° 271° (W) 18:48:55 435.910
AO-7 30 May 18:47:54 18:53:47 20° 269° (W) 18:59:14 29.400- 29.500
BEESAT 2 30 May 18:54:53 18:58:40 34° 306° (NW) 19:02:28 435.950
RS-15 30 May 19:07:17 19:19:03 86° 241° (WSW) 19:31:15 29.354- 29.394
AIST 2 30 May 19:10:35 19:14:51 87° 299° (WNW) 19:19:09 435.215
CUTE-I 30 May 19:22:30 19:27:48 83° 76° (ENE) 19:33:10 437.470
BEESAT 3 30 May 19:41:09 19:42:39 11° 317° (NW) 19:44:00 437.485
Cubesat XI-IV 30 May 19:44:30 19:49:44 61° 259° (WSW) 19:55:01 437.490
PRISM 30 May 19:45:28 19:47:41 14° 92° (E) 19:50:06 437.425
STRAND 1 30 May 19:51:39 19:55:06 19° 92° (E) 19:58:44 437.568
YUBILEINY 30 May 19:54:14 20:02:57 83° 265° (W) 20:11:39 435.215
Cosmos 2491 30 May 19:56:02 20:04:34 60° 92° (E) 20:13:13 435.465 / 435.565
MOZHAYETS 4 30 May 19:56:52 19:58:49 12° 294° (WNW) 20:00:32
BRITE-PL 30 May 20:04:17 20:07:56 20° 66° (ENE) 20:11:55 437.365/2234.400
CUBESAT XI-V 30 May 20:07:42 20:12:25 73° 101° (ESE) 20:17:07 437.345
Cosmos 2504 30 May 20:26:14 20:28:43 12° 62° (ENE) 20:31:44 435.465 / 435.565
DOVE 4 30 May 20:27:31 20:29:54 14° 64° (ENE) 20:32:35 437.250
HO-68 30 May 20:41:51 20:47:55 32° 65° (ENE) 20:54:07 435.675
CANX-2 30 May 20:53:23 20:56:27 20° 70° (ENE) 20:59:37 2200.000
AIST 2 30 May 20:53:30 20:54:08 10° 319° (NW) 20:54:35 435.215
CUTE 1.7 + AOD 2 30 May 20:56:20 20:59:20 20° 70° (ENE) 21:02:27 437.475
AIST 1 30 May 21:07:03 21:11:11 53° 94° (E) 21:15:23
CINEMA 3 30 May 21:10:55 21:14:04 17° 67° (ENE) 21:17:25 145.822/145.860
SEEDS 30 May 21:11:54 21:15:13 24° 71° (ENE) 21:18:37 437.485
COMPASS 1 30 May 21:18:24 21:21:36 22° 71° (ENE) 21:24:53 437.405
PRISM 30 May 21:19:26 21:23:21 39° 287° (WNW) 21:27:14 437.425
GOMX 1 30 May 21:21:39 21:26:49 69° 76° (ENE) 21:32:17 467.674
RS-15 30 May 21:22:21 21:30:19 20° 258° (WSW) 21:37:33 29.354- 29.394
M-CUBED/EXP-1 PRIME 30 May 21:25:05 21:28:22 65° 105° (ESE) 21:31:45 437.505
AAUSAT CUBESAT 2 30 May 21:26:47 21:30:03 23° 71° (ENE) 21:33:24 437.432
AUBIESAT-1 30 May 21:29:08 21:32:25 61° 106° (ESE) 21:35:48 437.475
STRAND 1 30 May 21:29:40 21:34:35 46° 288° (WNW) 21:39:28 437.568
CUBEBUG 2 30 May 21:34:49 21:37:15 15° 67° (ENE) 21:39:55 437.445
BRITE-PL 30 May 21:40:59 21:46:01 50° 262° (W) 21:51:23 437.365/2234.400
CUBESAT XI-V 30 May 21:47:56 21:49:20 11° 295° (WNW) 21:50:26 437.345
ISS 30 May 21:48:10 21:49:59 15° 129° (SE) 21:51:55 145.825
YUBILEINY 30 May 21:54:36 21:58:38 13° 281° (W) 22:01:58 435.215
Cosmos 2491 30 May 21:54:41 22:02:04 28° 291° (WNW) 22:09:11 435.465 / 435.565
DOVE 4 30 May 22:01:52 22:07:02 73° 259° (W) 22:12:22 437.250
FUNcube-1 30 May 22:10:37 22:13:55 21° 70° (ENE) 22:17:21 145.935
UWE-3 30 May 22:11:29 22:15:24 28° 71° (ENE) 22:19:23 435.000/436.395/437.385
Cosmos 2504 30 May 22:16:10 22:23:22 87° 83° (E) 22:30:41 435.465 / 435.565
CANX-2 30 May 22:28:26 22:32:13 30° 264° (W) 22:35:57 2200.000
HO-68 30 May 22:28:34 22:35:26 46° 261° (W) 22:42:16 435.675
CUTE 1.7 + AOD 2 30 May 22:31:16 22:35:05 31° 264° (W) 22:38:51 437.475
UKube-1 30 May 22:45:53 22:49:08 22° 69° (ENE) 22:52:30 .
CINEMA 3 30 May 22:46:00 22:50:52 51° 261° (W) 22:55:47 145.822/145.860
SEEDS 30 May 22:47:26 22:50:57 25° 265° (W) 22:54:23 437.485
AIST 1 30 May 22:48:11 22:49:19 11° 292° (WNW) 22:50:11
ZACube-1 30 May 22:51:41 22:56:12 59° 75° (ENE) 23:00:42 437.345
COMPASS 1 30 May 22:53:38 22:57:11 26° 265° (W) 23:00:40 437.405
Oscar 11 30 May 22:54:31 22:58:50 70° 259° (W) 23:03:09 145.826/435.025
DELFI C3 30 May 22:59:38 23:03:39 84° 257° (WSW) 23:07:41 145.870
DX 1 30 May 23:00:20 23:04:13 34° 72° (ENE) 23:08:12 434.975-435.025
AAUSAT CUBESAT 2 30 May 23:02:10 23:05:36 24° 265° (W) 23:08:58 437.432
GOMX 1 30 May 23:03:01 23:05:36 13° 273° (W) 23:07:52 467.674
CUBEBUG 2 30 May 23:08:50 23:13:32 56° 261° (W) 23:18:12 437.445
CUBEBUG 1 30 May 23:19:04 23:21:02 13° 66° (ENE) 23:23:14 437.445
ISS 30 May 23:23:01 23:26:09 45° 324° (NW) 23:29:17 145.825
UNISAT 6 30 May 23:29:14 23:31:47 16° 91° (E) 23:34:30 437.425
VELOX 1 30 May 23:31:08 23:35:10 36° 72° (ENE) 23:39:17 145.980
50 SAT 30 May 23:42:24 23:46:17 52° 75° (ENE) 23:50:10 437.505
FUNcube-1 30 May 23:45:51 23:50:03 34° 263° (W) 23:54:12 145.935
HUMSAT D 30 May 23:46:28 23:50:47 73° 258° (WSW) 23:55:05 437.325/437.525
UWE-3 30 May 23:47:54 23:51:53 26° 265° (W) 23:55:46 435.000/436.395/437.385
ESTCUBE 1 30 May 23:51:05 23:55:07 35° 72° (ENE) 23:59:14 437.505/2401.250
AISAT 31 May 00:03:54 00:08:22 90° 253° (WSW) 00:12:52 437.250
ANTELSAT 31 May 00:11:25 00:15:38 50° 99° (E) 00:19:47 437.575/2403.000
Cosmos 2504 31 May 00:12:50 00:15:54 13° 278° (W) 00:18:26 435.465 / 435.565
QB50P1 31 May 00:13:35 00:16:52 22° 94° (E) 00:20:15 145.935-145.965
POLYITAN 1 31 May 00:17:53 00:21:24 25° 95° (E) 00:24:57 437.675
UKube-1 31 May 00:21:20 00:25:07 29° 263° (W) 00:28:54 .
GONETS M04 31 May 00:23:53 00:31:45 37° 73° (ENE) 00:39:41
DANDE 31 May 00:30:49 00:37:46 45° 72° (ENE) 00:43:09 436.750
ZACube-1 31 May 00:31:15 00:32:59 12° 271° (W) 00:34:24 437.345
CUSAT 1 31 May 00:32:46 00:39:18 59° 76° (ENE) 00:44:12 437.405
PCSat 31 May 00:35:56 00:41:01 45° 112° (ESE) 00:46:11 145.827
DX 1 31 May 00:37:28 00:40:36 18° 267° (W) 00:43:35 434.975-435.025
VERMONT LUNAR 31 May 00:37:42 00:40:41 35° 152° (SSE) 00:43:42 437.305
TIGRISAT 31 May 00:42:06 00:46:26 72° 285° (WNW) 00:50:39 435.000
NANOSAT C BR1 31 May 00:42:38 00:46:47 48° 100° (E) 00:50:53 145.865
O/OREOS (USA 219) 31 May 00:47:20 00:49:17 13° 55° (NE) 00:51:26 437.305
CUBEBUG 1 31 May 00:52:45 00:57:00 51° 261° (W) 01:01:18 437.445
QB50P2 31 May 00:53:53 00:58:10 71° 101° (E) 01:02:23 145.880/145.840
ISS 31 May 01:02:51 01:03:15 10° 342° (NNW) 01:03:35 145.825
DUCHIFAT 1 31 May 01:03:15 01:07:33 86° 102° (ESE) 01:11:46 145.980
UNISAT 6 31 May 01:04:47 01:08:48 37° 287° (WNW) 01:12:43 437.425
POPSAT HIP 1 31 May 01:05:01 01:09:18 88° 283° (WNW) 01:13:32 437.405
BUGSAT 1 31 May 01:06:25 01:10:40 62° 101° (E) 01:14:50 437.445
VELOX 1 31 May 01:08:48 01:11:53 18° 267° (W) 01:14:51 145.980
SPROUT 31 May 01:14:23 01:18:41 71° 76° (ENE) 01:23:01 437.525
TISAT 1 31 May 01:20:28 01:24:39 59° 75° (ENE) 01:28:53 437.305
SWISSCUBE 31 May 01:22:28 01:23:41 11° 64° (ENE) 01:25:11 437.505
ESTCUBE 1 31 May 01:28:56 01:32:08 19° 267° (W) 01:35:13 437.505/2401.250
QB50P1 31 May 01:49:07 01:52:44 27° 289° (WNW) 01:56:17 145.935-145.965
ANTELSAT 31 May 01:49:58 01:52:01 13° 294° (WNW) 01:53:52 437.575/2403.000
POLYITAN 1 31 May 01:53:47 01:57:14 24° 290° (WNW) 02:00:35 437.675
PHONESAT 2.4 31 May 01:59:23 02:02:42 40° 153° (SSE) 02:06:00 2401.200-2431.200
SO-50 31 May 02:00:40 02:03:04 14° 109° (ESE) 02:05:44 436.795
VERMONT LUNAR 31 May 02:14:36 02:17:48 58° 346° (NNW) 02:21:00 437.305
DANDE 31 May 02:14:51 02:20:28 25° 276° (W) 02:24:54 436.750
CUSAT 1 31 May 02:17:20 02:20:58 16° 279° (W) 02:23:52 437.405
NANOSAT C BR1 31 May 02:20:08 02:22:13 13° 293° (WNW) 02:24:07 145.865
PCSat 31 May 02:20:15 02:24:40 24° 309° (NW) 02:29:01 145.827
GONETS M04 31 May 02:20:33 02:28:44 44° 271° (W) 02:36:44
BEESAT 3 31 May 02:21:24 02:24:37 22° 50° (NE) 02:27:52 437.485
O/OREOS (USA 219) 31 May 02:24:46 02:29:10 58° 252° (WSW) 02:33:34 437.305
Cosmos 2499 31 May 02:33:02 02:39:39 42° 76° (ENE) 02:46:31 435.465 / 435.565
ITUPSAT 1 31 May 02:42:15 02:46:58 71° 76° (ENE) 02:51:44 437.325
BUGSAT 1 31 May 02:44:40 02:45:39 10° 294° (WNW) 02:46:22 437.445
BEESAT 31 May 02:46:59 02:51:44 82° 78° (ENE) 02:56:31 436.000
Oscar 19 31 May 02:51:59 02:56:46 39° 98° (E) 03:01:34 437.125/150
SWISSCUBE 31 May 02:56:16 03:01:00 73° 258° (WSW) 03:05:46 437.505
BEESAT 2 31 May 03:15:46 03:19:51 69° 59° (ENE) 03:23:52 435.950
KKS-1 31 May 03:15:52 03:19:37 27° 70° (ENE) 03:23:26 437.445
ITAMSAT 1 31 May 03:16:53 03:20:26 19° 92° (E) 03:24:09 435.822/435.867
AIST 2 31 May 03:34:48 03:38:33 30° 52° (NE) 03:42:15 435.215
PHONESAT 2.4 31 May 03:37:19 03:40:46 57° 348° (NNW) 03:44:13 2401.200-2431.200
SO-50 31 May 03:38:33 03:43:09 56° 304° (WNW) 03:47:56 436.795
VERMONT LUNAR 31 May 03:52:10 03:55:16 42° 4° (N) 03:58:20 437.305
BEESAT 3 31 May 03:59:04 04:02:37 29° 247° (WSW) 04:06:04 437.485
STARS 31 May 04:08:08 04:12:31 64° 75° (ENE) 04:16:57 437.465
ISS 31 May 04:17:07 04:18:40 13° 22° (NNE) 04:20:16 145.825
Gurwin Techsat 1B 31 May 04:19:48 04:25:09 77° 101° (E) 04:30:28 435.225
Cosmos 2499 31 May 04:26:38 04:32:36 29° 272° (W) 04:38:31 435.465 / 435.565
Oscar 19 31 May 04:31:55 04:35:55 23° 292° (WNW) 04:39:45 437.125/150
KKS-1 31 May 04:52:30 04:56:13 25° 265° (W) 04:59:52 437.445
ITAMSAT 1 31 May 04:55:12 05:00:13 46° 288° (WNW) 05:05:11 435.822/435.867
AO-7 31 May 04:56:45 05:03:40 29° 95° (E) 05:10:48 29.400- 29.500
AIST 2 31 May 05:13:41 05:16:59 22° 248° (WSW) 05:20:08 435.215
PHONESAT 2.4 31 May 05:15:48 05:19:11 45° 5° (N) 05:22:32 2401.200-2431.200
MOZHAYETS 4 31 May 05:17:12 05:21:30 43° 74° (ENE) 05:25:51
VERMONT LUNAR 31 May 05:29:23 05:32:36 84° 204° (SSW) 05:35:48 437.305
HORYU 2 31 May 05:38:41 05:43:08 84° 102° (ESE) 05:47:33 437.375
JAS-2 31 May 05:51:22 05:56:35 84° 284° (WNW) 06:02:08 435.910
ISS 31 May 05:52:18 05:55:34 75° 39° (NE) 05:58:49 145.825
Gurwin Techsat 1B 31 May 06:02:09 06:04:33 13° 297° (WNW) 06:06:39 435.225
Cosmos 2491 31 May 06:10:04 06:16:57 26° 68° (ENE) 06:24:07 435.465 / 435.565
AO-7 31 May 06:48:44 06:56:53 57° 293° (WNW) 07:04:58 29.400- 29.500
PHONESAT 2.4 31 May 06:53:57 06:57:26 76° 202° (SSW) 07:00:53 2401.200-2431.200
MOZHAYETS 4 31 May 06:56:09 06:58:59 16° 269° (W) 07:01:39
YUBILEINY 31 May 06:58:11 07:04:21 23° 83° (E) 07:10:54 435.215
STRAND 1 31 May 07:05:29 07:09:15 22° 67° (ENE) 07:13:10 437.568
VERMONT LUNAR 31 May 07:07:23 07:09:28 16° 214° (SW) 07:11:30 437.305
CUBESAT XI-V 31 May 07:08:46 07:13:13 53° 75° (ENE) 07:17:45 437.345
AIST 1 31 May 07:18:45 07:20:01 11° 69° (ENE) 07:21:34
RS-15 31 May 07:22:31 07:27:24 15° 101° (E) 07:33:17 29.354- 29.394
CUTE-I 31 May 07:42:08 07:47:09 40° 98° (E) 07:52:11 437.470
Cubesat XI-IV 31 May 08:03:58 08:09:19 66° 101° (E) 08:14:40 437.490
Cosmos 2491 31 May 08:05:52 08:14:34 63° 267° (W) 08:23:08 435.465 / 435.565
PRISM 31 May 08:06:51 08:10:55 75° 257° (WSW) 08:15:02 437.425
M-CUBED/EXP-1 PRIME 31 May 08:10:56 08:15:02 63° 72° (ENE) 08:18:49 437.505
AUBIESAT-1 31 May 08:14:35 08:18:35 59° 71° (ENE) 08:22:19 437.475
PHONESAT 2.4 31 May 08:33:01 08:35:12 16° 215° (SW) 08:37:17 2401.200-2431.200
STRAND 1 31 May 08:43:27 08:48:13 40° 262° (W) 08:53:00 437.568
AO-7 31 May 08:45:42 08:48:07 11° 311° (NW) 08:49:58 29.400- 29.500
CUBESAT XI-V 31 May 08:48:50 08:51:04 13° 271° (W) 08:53:04 437.345
YUBILEINY 31 May 08:51:48 09:00:31 67° 280° (W) 09:09:13 435.215
AIST 1 31 May 08:53:49 08:58:08 54° 266° (W) 09:02:24
Cosmos 2504 31 May 09:03:58 09:06:08 12° 81° (E) 09:08:59 435.465 / 435.565
CUTE-I 31 May 09:22:44 09:27:01 24° 293° (WNW) 09:31:10 437.470
PCSat 31 May 09:26:25 09:30:43 24° 51° (NE) 09:35:06 145.827
GOMX 1 31 May 09:27:09 09:31:24 26° 92° (E) 09:35:31 467.674
RS-15 31 May 09:27:24 09:38:15 80° 117° (ESE) 09:49:23 29.354- 29.394
JUGNU 31 May 09:44:00 09:46:13 12° 171° (S) 09:48:29 437.505
Cubesat XI-IV 31 May 09:45:49 09:48:56 15° 296° (WNW) 09:51:48 437.490
BRITE-PL 31 May 09:48:21 09:53:55 70° 100° (E) 09:59:06 437.365/2234.400
HO-68 31 May 09:58:35 10:05:10 40° 98° (E) 10:11:48 435.675
DOVE 4 31 May 10:04:15 10:08:52 38° 96° (E) 10:13:13 437.250
CANX-2 31 May 10:15:26 10:19:33 52° 99° (E) 10:23:40 2200.000
CUTE 1.7 + AOD 2 31 May 10:18:14 10:22:20 50° 99° (E) 10:26:26 437.475
UNISAT 6 31 May 10:26:56 10:28:56 13° 66° (ENE) 10:31:10 437.425
SEEDS 31 May 10:33:07 10:37:16 62° 100° (E) 10:41:24 437.485
SO-50 31 May 10:34:22 10:35:30 11° 38° (NE) 10:36:53 436.795
COMPASS 1 31 May 10:38:32 10:42:37 56° 100° (E) 10:46:41 437.405
DELFI C3 31 May 10:42:28 10:44:44 15° 92° (E) 10:47:10 145.870
CINEMA 3 31 May 10:43:49 10:48:15 46° 98° (E) 10:52:28 145.822/145.860
Oscar 11 31 May 10:44:41 10:48:09 24° 95° (E) 10:51:41 145.826/435.025
ZACube-1 31 May 10:44:52 10:46:35 12° 90° (E) 10:48:32 437.345
AAUSAT CUBESAT 2 31 May 10:46:26 10:50:32 59° 100° (E) 10:54:37 437.432
Cosmos 2504 31 May 10:50:22 10:58:39 80° 95° (E) 11:06:23 435.465 / 435.565
YUBILEINY 31 May 10:56:59 10:59:28 11° 303° (WNW) 11:01:10 435.215
CUBEBUG 2 31 May 11:02:53 11:06:52 35° 97° (E) 11:10:46 437.445
GOMX 1 31 May 11:04:53 11:09:34 33° 290° (WNW) 11:13:56 467.674
QB50P1 31 May 11:05:24 11:07:28 14° 67° (ENE) 11:09:44 145.935-145.965
ANTELSAT 31 May 11:07:56 11:12:11 36° 72° (ENE) 11:16:25 437.575/2403.000
PCSat 31 May 11:09:13 11:14:23 46° 248° (WSW) 11:19:30 145.827
POLYITAN 1 31 May 11:09:40 11:12:11 16° 68° (ENE) 11:14:52 437.675
SRMSAT 31 May 11:11:01 11:12:37 11° 169° (S) 11:14:18 437.500
BRITE-PL 31 May 11:28:40 11:31:46 15° 296° (WNW) 11:34:31 437.365/2234.400
JUGNU 31 May 11:31:15 11:34:26 15° 181° (S) 11:37:37 437.505
NANOSAT C BR1 31 May 11:33:11 11:36:47 28° 71° (ENE) 11:40:28 145.865
HUMSAT D 31 May 11:33:46 11:36:48 20° 93° (E) 11:39:56 437.325/437.525
FUNcube-1 31 May 11:36:25 11:40:35 52° 99° (E) 11:44:39 145.935
TIGRISAT 31 May 11:37:57 11:42:36 75° 76° (ENE) 11:47:13 435.000
UWE-3 31 May 11:39:36 11:43:55 78° 101° (ESE) 11:48:06 435.000/436.395/437.385
RS-15 31 May 11:42:33 11:52:01 31° 322° (NW) 12:01:30 29.354- 29.394
DOVE 4 31 May 11:42:37 11:46:20 21° 293° (WNW) 11:49:46 437.250
QB50P2 31 May 11:44:31 11:48:29 38° 73° (ENE) 11:52:31 145.880/145.840
HO-68 31 May 11:46:25 11:52:51 36° 294° (WNW) 11:59:09 435.675
DUCHIFAT 1 31 May 11:53:11 11:57:16 46° 74° (ENE) 12:01:24 145.980
CANX-2 31 May 11:53:21 11:55:05 12° 293° (WNW) 11:56:36 2200.000
BUGSAT 1 31 May 11:54:22 11:58:02 31° 72° (ENE) 12:01:49 437.445
CUSAT 1 31 May 11:55:01 11:58:28 14° 81° (E) 12:02:38 437.405
POPSAT HIP 1 31 May 11:55:18 11:59:27 50° 74° (ENE) 12:03:39 437.405
CUTE 1.7 + AOD 2 31 May 11:56:00 11:57:52 12° 293° (WNW) 11:59:31 437.475
AISAT 31 May 11:57:46 12:01:05 21° 94° (E) 12:04:31 437.250
DANDE 31 May 11:59:32 12:00:39 11° 78° (ENE) 12:02:33 436.750
UNISAT 6 31 May 12:00:40 12:05:17 59° 260° (W) 12:09:52 437.425
UKube-1 31 May 12:10:26 12:14:42 53° 100° (E) 12:18:57 .
SO-50 31 May 12:12:06 12:17:04 70° 59° (ENE) 12:21:55 436.795
SEEDS 31 May 12:12:13 12:12:36 10° 294° (WNW) 12:12:43 437.485
DELFI C3 31 May 12:16:20 12:20:00 34° 287° (WNW) 12:23:38 145.870
COMPASS 1 31 May 12:16:40 12:17:51 11° 293° (WNW) 12:18:48 437.405
ZACube-1 31 May 12:19:13 12:23:18 45° 286° (WNW) 12:27:17 437.345
Oscar 11 31 May 12:20:43 12:24:18 25° 289° (WNW) 12:27:46 145.826/435.025
CINEMA 3 31 May 12:22:20 12:25:03 15° 294° (WNW) 12:27:31 145.822/145.860
AAUSAT CUBESAT 2 31 May 12:25:02 12:25:42 10° 293° (WNW) 12:26:06 437.432
DX 1 31 May 12:26:28 12:30:53 89° 98° (E) 12:35:16 434.975-435.025
QB50P1 31 May 12:38:49 12:42:57 47° 261° (W) 12:47:08 145.935-145.965
CUBEBUG 2 31 May 12:40:19 12:43:18 18° 292° (WNW) 12:46:06 437.445
POLYITAN 1 31 May 12:43:42 12:47:47 41° 262° (W) 12:51:53 437.675
CUBEBUG 1 31 May 12:43:59 12:48:01 33° 97° (E) 12:52:03 437.445
ANTELSAT 31 May 12:45:34 12:49:04 20° 267° (W) 12:52:24 437.575/2403.000
Cosmos 2504 31 May 12:47:33 12:52:55 18° 294° (WNW) 12:57:41 435.465 / 435.565
50 SAT 31 May 12:55:30 12:59:21 69° 284° (WNW) 13:03:09 437.505
SRMSAT 31 May 12:57:52 13:00:59 15° 179° (S) 13:04:07 437.500
VELOX 1 31 May 12:59:50 13:04:20 79° 284° (WNW) 13:08:47 145.980
SPROUT 31 May 13:04:52 13:07:14 15° 91° (E) 13:09:47 437.525
HUMSAT D 31 May 13:09:04 13:12:35 27° 289° (WNW) 13:16:00 437.325/437.525
NANOSAT C BR1 31 May 13:09:15 13:12:37 22° 266° (W) 13:15:56 145.865
TISAT 1 31 May 13:09:48 13:10:54 11° 90° (E) 13:12:16 437.305
FUNcube-1 31 May 13:14:45 13:16:29 12° 294° (WNW) 13:18:00 145.935
JUGNU 31 May 13:20:57 13:22:40 11° 191° (S) 13:24:17 437.505
GONETS M04 31 May 13:21:39 13:29:50 46° 89° (E) 13:38:09
QB50P2 31 May 13:21:53 13:24:35 16° 268° (W) 13:27:06 145.880/145.840
ESTCUBE 1 31 May 13:22:12 13:26:44 76° 285° (WNW) 13:31:16 437.505/2401.250
BUGSAT 1 31 May 13:30:37 13:33:37 18° 267° (W) 13:36:29 437.445
DUCHIFAT 1 31 May 13:31:16 13:33:23 13° 270° (W) 13:35:16 145.980
CUSAT 1 31 May 13:32:23 13:39:58 79° 97° (E) 13:48:21 437.405
AISAT 31 May 13:33:44 13:37:45 32° 289° (WNW) 13:41:41 437.250
POPSAT HIP 1 31 May 13:33:54 13:35:42 12° 270° (W) 13:37:14 437.405
DANDE 31 May 13:35:03 13:42:21 65° 94° (E) 13:50:49 436.750
UKube-1 31 May 13:48:22 13:50:25 13° 294° (WNW) 13:52:17 .
SO-50 31 May 13:54:58 13:57:05 12° 252° (WSW) 13:58:54 436.795
Gurwin Techsat 1B 31 May 14:03:07 14:04:33 11° 62° (ENE) 14:06:20 435.225
RS-15 31 May 14:04:02 14:09:44 15° 356° (N) 14:15:28 29.354- 29.394
Oscar 19 31 May 14:06:26 14:11:22 46° 72° (ENE) 14:16:20 437.125/150
CUBEBUG 1 31 May 14:20:52 14:24:11 20° 291° (WNW) 14:27:20 437.445
ITAMSAT 1 31 May 14:32:43 14:36:41 24° 68° (ENE) 14:40:48 435.822/435.867
SPROUT 31 May 14:39:28 14:43:34 41° 287° (WNW) 14:47:36 437.525
TISAT 1 31 May 14:42:54 14:47:04 53° 286° (WNW) 14:51:11 437.305
ITUPSAT 1 31 May 14:45:54 14:49:32 22° 94° (E) 14:53:19 437.325
SRMSAT 31 May 14:47:12 14:49:22 12° 189° (S) 14:51:28 437.500
BEESAT 31 May 14:50:07 14:53:59 25° 95° (E) 14:57:57 436.000
O/OREOS (USA 219) 31 May 14:56:37 14:59:53 21° 102° (ESE) 15:03:17 437.305
SWISSCUBE 31 May 14:59:07 15:03:26 34° 97° (E) 15:07:48 437.505
Cosmos 2499 31 May 15:06:42 15:13:54 39° 90° (E) 15:20:46 435.465 / 435.565
CUSAT 1 31 May 15:17:39 15:23:41 22° 296° (WNW) 15:29:39 437.405
GONETS M04 31 May 15:18:51 15:26:52 36° 288° (WNW) 15:34:46
DANDE 31 May 15:19:53 15:26:22 27° 295° (WNW) 15:33:11 436.750
Gurwin Techsat 1B 31 May 15:38:35 15:43:53 85° 255° (WSW) 15:49:15 435.225
Oscar 19 31 May 15:47:16 15:51:00 19° 268° (W) 15:54:32 437.125/150
AO-7 31 May 15:53:28 16:00:33 34° 62° (ENE) 16:07:51 29.400- 29.500
JAS-2 31 May 16:01:20 16:06:53 33° 71° (ENE) 16:12:00 435.910
STARS 31 May 16:01:52 16:04:03 14° 91° (E) 16:06:28 437.465
ITAMSAT 1 31 May 16:11:12 16:16:00 38° 262° (W) 16:20:48 435.822/435.867
RS-15 31 May 16:19:19 16:28:06 25° 31° (NNE) 16:37:31 29.354- 29.394
ITUPSAT 1 31 May 16:23:11 16:27:32 34° 289° (WNW) 16:31:49 437.325
BEESAT 31 May 16:27:40 16:31:51 30° 290° (WNW) 16:35:58 436.000
HORYU 2 31 May 16:34:30 16:38:53 57° 74° (ENE) 16:43:17 437.375
O/OREOS (USA 219) 31 May 16:35:04 16:39:08 32° 297° (WNW) 16:43:09 437.305
SWISSCUBE 31 May 16:37:22 16:41:08 23° 291° (WNW) 16:44:47 437.505
KKS-1 31 May 16:44:54 16:49:23 76° 102° (ESE) 16:53:50 437.445
